GW4318 Weather Reports


Display with metric or nautical units.
time (UTC)temp
F
wind
direction
speed
MPH
gust
MPH
rain 1hr
in
rain 24hr
in
rain mn
in
humidity
%
barometer
mb
20260506061517 65 139 3.0 9.0 0.00 0.00 0.00 71 1009.8
20260506060539 65 206 3.0 6.0 0.00 0.00 0.00 70 1009.7
20260506050519 64 181 2.0 7.0 0.00 0.00 0.00 68 1010.2
20260506044521 64 158 2.0 7.0 0.00 0.00 0.00 67 1010.3
20260506043524 64 287 2.0 5.0 0.00 0.00 0.00 67 1010.3
20260506042538 64 284 2.0 8.0 0.00 0.00 0.00 67 1010.3
20260506041539 64 275 2.0 6.0 0.00 0.00 0.00 67 1010.3
20260506040520 64 254 2.0 6.0 0.00 0.00 0.00 67 1010.4
20260506035542 64 265 2.0 7.0 0.00 0.00 0.00 67 1010.3
20260506034517 64 224 2.0 8.0 0.00 0.00 0.00 66 1010.3
20260506033519 64 278 2.0 6.0 0.00 0.00 0.00 66 1010.2
20260506032519 65 255 2.0 7.0 0.00 0.00 0.00 66 1010.2
20260506031518 65 274 3.0 8.0 0.00 0.00 0.00 65 1010.2
20260506030517 65 251 3.0 7.0 0.00 0.00 0.00 65 1010.2
20260506025521 65 258 3.0 7.0 0.00 0.00 0.00 64 1010.2
20260506024520 65 192 2.0 7.0 0.00 0.00 0.00 64 1010.2
20260506023518 65 221 3.0 7.0 0.00 0.00 0.00 63 1010.3
20260506022517 65 283 3.0 8.0 0.00 0.00 0.00 62 1010.2
20260506021520 66 197 3.0 6.0 0.00 0.00 0.00 62 1010.2
20260506020540 66 200 3.0 8.0 0.00 0.00 0.00 61 1010.0
20260506015539 66 207 3.0 8.0 0.00 0.00 0.00 61 1010.1
20260506014539 66 156 3.0 9.0 0.00 0.00 0.00 61 1009.9
20260506013518 67 242 3.0 8.0 0.00 0.00 0.00 60 1009.8
20260506012521 67 214 3.0 10.0 0.00 0.00 0.00 59 1009.7
20260506011518 68 221 4.0 8.0 0.00 0.00 0.00 59 1009.5
20260506010518 68 259 3.0 8.0 0.00 0.00 0.00 58 1009.3
20260506005518 69 165 3.0 6.0 0.00 0.00 0.00 57 1009.3
20260506004518 70 177 3.0 10.0 0.00 0.00 0.00 55 1009.1
20260506003538 70 233 3.0 9.0 0.00 0.00 0.00 54 1009.0
20260506002518 70 234 3.0 8.0 0.00 0.00 0.00 53 1008.8
20260506001519 70 144 3.0 7.0 0.00 0.00 0.00 54 1008.6
20260506000519 71 263 2.0 8.0 0.00 0.00 0.00 53 1008.4
20260505235519 71 129 3.0 10.0 0.00 0.00 0.00 53 1008.1
20260505233541 72 156 3.0 7.0 0.00 0.00 0.00 52 1007.8
20260505232519 73 179 3.0 9.0 0.00 0.00 0.00 50 1007.8
20260505231516 74 202 5.0 10.0 0.00 0.00 0.00 48 1007.6
20260505230520 74 163 3.0 8.0 0.00 0.00 0.00 49 1007.4
20260505225520 75 288 3.0 9.0 0.00 0.00 0.00 49 1007.2
20260505224517 75 271 2.0 8.0 0.00 0.00 0.00 49 1007.1
20260505223517 75 132 2.0 7.0 0.00 0.00 0.00 50 1006.8
20260505222517 76 133 4.0 11.0 0.00 0.00 0.00 49 1006.6
20260505221520 76 144 2.0 8.0 0.00 0.00 0.00 49 1006.4
20260505220521 76 142 4.0 7.0 0.00 0.00 0.00 48 1006.7
20260505215517 76 225 4.0 10.0 0.00 0.00 0.00 48 1006.9
20260505214519 77 248 4.0 9.0 0.00 0.00 0.00 48 1006.7
20260505213518 78 157 3.0 9.0 0.00 0.00 0.00 49 1006.5
20260505212518 78 177 4.0 12.0 0.00 0.00 0.00 49 1006.4
20260505211518 78 243 3.0 8.0 0.00 0.00 0.00 48 1006.3
20260505210518 78 152 3.0 9.0 0.00 0.00 0.00 48 1006.1
20260505205558 79 173 4.0 12.0 0.00 0.00 0.00 48 1006.3
20260505204518 79 143 4.0 10.0 0.00 0.00 0.00 47 1006.1
20260505203518 79 181 3.0 8.0 0.00 0.00 0.00 48 1006.0
20260505202519 80 135 6.0 14.0 0.00 0.00 0.00 45 1006.1
20260505201519 82 135 4.0 8.0 0.00 0.00 0.00 46 1006.1
20260505200520 82 247 4.0 12.0 0.00 0.00 0.00 38 1005.9
20260505195519 82 265 5.0 12.0 0.00 0.00 0.00 40 1006.1
20260505194520 82 260 5.0 13.0 0.00 0.00 0.00 40 1006.0
20260505193516 82 245 5.0 12.0 0.00 0.00 0.00 40 1006.1
20260505192519 82 283 5.0 12.0 0.00 0.00 0.00 41 1006.4
20260505191519 81 268 5.0 13.0 0.00 0.00 0.00 42 1006.5
20260505190539 81 201 3.0 8.0 0.00 0.00 0.00 47 1006.6
20260505185557 80 147 4.0 11.0 0.00 0.00 0.00 47 1006.6
20260505184518 81 128 4.0 9.0 0.00 0.00 0.00 47 1007.0
20260505183520 81 148 4.0 8.0 0.00 0.00 0.00 47 1007.0
20260505182540 81 150 5.0 9.0 0.00 0.00 0.00 46 1007.2
20260505181517 81 152 5.0 11.0 0.00 0.00 0.00 46 1007.4
20260505180517 81 141 5.0 10.0 0.00 0.00 0.00 46 1007.3
20260505175537 81 148 3.0 9.0 0.00 0.00 0.00 45 1007.3
20260505174520 81 262 3.0 12.0 0.00 0.00 0.00 44 1007.6
20260505173518 81 180 3.0 9.0 0.00 0.00 0.00 45 1007.8
20260505172518 80 152 3.0 8.0 0.00 0.00 0.00 46 1007.9
20260505171559 80 164 5.0 13.0 0.00 0.00 0.00 45 1008.1
20260505170518 79 284 4.0 11.0 0.00 0.00 0.00 47 1008.2
20260505165518 78 257 4.0 11.0 0.00 0.00 0.00 47 1008.4
20260505164518 78 246 3.0 10.0 0.00 0.00 0.00 47 1008.6
20260505163518 77 259 2.0 5.0 0.00 0.00 0.00 49 1008.8
20260505162518 77 218 3.0 8.0 0.00 0.00 0.00 49 1009.2
20260505161516 76 144 4.0 9.0 0.00 0.00 0.00 49 1009.3
20260505160520 76 178 4.0 10.0 0.00 0.00 0.00 50 1009.5
20260505152521 73 133 4.0 9.0 0.00 0.00 0.00 53 1009.8
20260505151540 73 245 4.0 9.0 0.00 0.00 0.00 53 1009.8
20260505150517 71 173 4.0 9.0 0.00 0.00 0.00 55 1009.9
20260505140518 66 233 3.0 12.0 0.00 0.00 0.00 63 1010.2
20260505124518 63 150 2.0 6.0 0.00 0.00 0.00 67 1010.0
20260505123519 62 179 2.0 6.0 0.00 0.00 0.00 70 1010.0
20260505122536 61 275 3.0 7.0 0.00 0.00 0.00 71 1010.1
20260505121519 60 147 2.0 6.0 0.00 0.00 0.00 73 1010.1
20260505120602 59 234 2.0 6.0 0.00 0.00 0.00 74 1010.1
20260505115602 58 279 3.0 7.0 0.00 0.00 0.00 75 1010.0
20260505114516 58 161 2.0 5.0 0.00 0.00 0.00 76 1009.9
20260505113519 57 241 3.0 7.0 0.00 0.00 0.00 78 1010.0
20260505112624 55 102 2.0 6.0 0.00 0.00 0.00 80 1009.8
20260505111520 54 122 2.0 7.0 0.00 0.00 0.00 82 1009.8
20260505110529 54 306 1.0 4.0 0.00 0.00 0.00 82 1009.9
20260505101529 52 50 1.0 2.0 0.00 0.00 0.00 84 1010.0
20260505100529 52 15 1.0 2.0 0.00 0.00 0.00 84 1009.9
20260505095530 52 64 1.0 2.0 0.00 0.00 0.00 83 1009.9
20260505094531 52 290 1.0 2.0 0.00 0.00 0.00 83 1010.0
20260505093530 52 27 0.0 2.0 0.00 0.00 0.00 83 1010.0
20260505092529 52 9 1.0 1.0 0.00 0.00 0.00 82 1010.0
20260505091530 52 292 1.0 2.0 0.00 0.00 0.00 81 1009.9
20260505090531 52 52 1.0 2.0 0.00 0.00 0.00 81 1009.9
20260505085550 52 55 1.0 4.0 0.00 0.00 0.00 81 1010.0
20260505084530 52 81 1.0 3.0 0.00 0.00 0.00 81 1010.2
20260505083531 52 89 1.0 2.0 0.00 0.00 0.00 80 1010.3
20260505082532 52 14 1.0 3.0 0.00 0.00 0.00 80 1010.3
20260505081521 52 300 1.0 3.0 0.00 0.00 0.00 78 1010.2
20260505080518 52 245 1.0 3.0 0.00 0.00 0.00 78 1010.2
20260505075517 53 58 1.0 3.0 0.00 0.00 0.00 78 1010.2
20260505074521 53 46 1.0 4.0 0.00 0.00 0.00 77 1010.4
20260505073520 53 235 1.0 2.0 0.00 0.00 0.00 77 1010.4
20260505072524 53 294 1.0 4.0 0.00 0.00 0.00 76 1010.4
20260505071539 53 342 1.0 4.0 0.00 0.00 0.00 76 1010.5
20260505070517 53 108 1.0 4.0 0.00 0.00 0.00 76 1010.5